Simultaneous Nadir Overpasses (SNOs) Predictions

Prediction of SNOs between LANDSAT-8 and METOP-A Satellite Orbit:

Table of predicted SNOs for the next 14.0 days since TLE Epoch: 1/1/2017
Index Date (LANDSAT-8) Time (LANDSAT-8) Lat,Lon (LANDSAT-8) SZA (LANDSAT-8 ) Date (METOP-A) Time (METOP-A) Lat,Lon (METOP-A) SZA (METOP-A ) Distance(km) Time Diff (sec)
1 01/02/2017 22:58:39 81.14,-124.57 105.80 01/02/2017 22:58:32 81.14,-124.70 105.78 2.50 7
2 01/02/2017 23:48:05 -81.16, 43.38 74.16 01/02/2017 23:49:11 -81.16, 43.43 74.13 0.96 66
3 01/05/2017 17:43:29 -81.11, 133.72 74.60 01/05/2017 17:42:17 -81.11, 133.53 74.65 3.21 72
4 01/05/2017 18:32:54 81.14, -58.22 105.46 01/05/2017 18:32:55 81.14, -58.21 105.46 0.17 1
5 01/05/2017 19:22:07 -81.43, 114.65 73.83 01/05/2017 19:23:21 -81.28, 114.92 73.87 16.73 74
6
